Hourly Data Report for September 27, 2022

VICTORIA UNIVERSITY CS
BRITISH COLUMBIA
Current Station Operator: ECCC - MSC

48°27'25.200" N
123°18'16.600" W
60.10 m
1018598
71783
WYJ

Download Data

Hourly Data (September 2022)
Hourly Data Report for September 27, 2022
TIME
LST
Temp Definition
°C
Dew Point Definition
°C
Rel Hum Definition
%
Precip. Amount Definition
mm

Wind Dir Definition
10's deg

Wind Spd Definition
km/h
Visibility Definition
km
Stn Press Definition
kPa
Hmdx Definition


Wind Chill Definition


Weather Definition


00:00 10.6 9.1 90 0.0 34 1   100.54     LegendNANA
01:00 10.5 9.2 92 0.0 30 3   100.51     LegendNANA
02:00 9.6 8.6 93 0.0 0 1   100.52     LegendNANA
03:00 9.4 8.6 95 0.0 34 2   100.54     LegendNANA
04:00 9.4 9.0 97 0.0   0   100.52     LegendNANA
05:00 9.0 8.5 97 0.0 0 1   100.50     LegendNANA
06:00 9.1 8.8 98 0.0 2 1   100.48     LegendNANA
07:00 9.5 9.2 98 0.0   0   100.49     LegendNANA
08:00 13.9 12.2 89 0.0 1 3   100.46     LegendNANA
09:00 17.3 11.6 69 0.0 2 6   100.46     LegendNANA
10:00 15.8 10.8 72 0.0 9 3   100.47     LegendNANA
11:00 16.0 10.7 70 0.0 8 5   100.45     LegendNANA
12:00 18.4 11.5 64 0.0 9 3   100.42     LegendNANA
13:00 20.9 11.0 53 0.0 18 6   100.39     LegendNANA
14:00 21.8 10.7 49 0.0 18 5   100.36     LegendNANA
15:00 20.7 10.3 51 0.0 18 5   100.32     LegendNANA
16:00 17.7 11.0 65 0.0 21 5   100.29     LegendNANA
17:00 19.0 11.9 63 0.0 23 7   100.24     LegendNANA
18:00 19.2 11.0 59 0.0 23 10   100.28     LegendNANA
19:00 17.4 9.2 59 0.0 23 8   100.33     LegendNANA
20:00 16.6 9.5 63 0.0 24 8   100.37     LegendNANA
21:00 15.7 9.3 66 0.0 24 8   100.41     LegendNANA
22:00 15.1 10.6 74 0.0 24 6   100.46     LegendNANA
23:00 14.3 10.8 80 0.0 27 2   100.47     LegendNANA

Notes on Data Quality.

Legend

  • E = Estimated
  • M = Missing
  • NA = Not Available*
  • [empty] = Indicates an unobserved value
Date modified: